User: anonymous   Login
Location: Cactus School
(34.5700°N, 118.0931°W)
Time: 18:12:45
(UTC-07:00)
Language:

Hubble Space Telescope - Orbit

View from above orbital plane
View from above orbital plane
View from above satellite
View from above satellite

Ground track
Ground track

The orbit data is extracted from the following two-line orbital elements,

1 20580U 90037B   18229.07724773  .00000461  00000-0  17246-4 0  9998
2 20580  28.4712  72.5776 0002956  80.9792 279.1112 15.09077307354679
Epoch (UTC): 17 August 2018 01:51:14
Eccentricity: 0.0002956
inclination: 28.4712°
perigee height: 537 km
apogee height: 541 km
right ascension of ascending node: 72.5776°
argument of perigee: 80.9792°
revolutions per day: 15.09077307
mean anomaly at epoch: 279.1112°
orbit number at epoch: 35467

The dashed part of the orbit path shows where the satellite is in the earth's shadow,  

DLR